MOLNIYA 1-29

Last updated on Aug. 7, 2020, 5:36 a.m. UTC

1 07780U 75036A   20219.28460598 -.00000034  00000-0 -16977-3 0  9991
2 07780  63.0238 303.9159 7347312 288.5593   9.6841  2.00609660331973
UTC
Height (km)
Latitude
Longitude
Inclination
Orbital Period
UTC large
Height (km)
Speed (km/s)
/
Latitude / Longitude
Inclination (degrees)
Orbital Period (minutes)
Azimuth
Elevation
Range (km)
Doppler Factor
iOS Compass Heading
iOS Angle

Next 30 passes for location: Hong Kong

Rise time Rise Azimuth (degrees) Set time Set Azimuth (degrees) Duration Max altitude (degrees)

No matching passes for this satellites